Regional Weather Roundup
Issued by NWS

Home | Current Version | Previous Version | Text Only | Print | Product List | Glossary On
Versions: 1 2 3 4 5 6 7 8 9 10 11 12 13 14 15 16 17 18 19 20 21 22 23 24 25 26 27 28 29 30 31 32 33 34 35 36 37 38 39 40 41 42 43 44 45 46 47 48 49 50
000
ASUS43 KTOP 310108
RWRKS

WEATHER ROUNDUP FOR KANSAS
NATIONAL WEATHER SERVICE GOODLAND KS
800 PM CDT SUN AUG 30 2015

NOTE:  "FAIR" INDICATES FEW OR NO CLOUDS BELOW 12,000 FEET WITH NO
SIGNIFICANT WEATHER AND/OR OBSTRUCTIONS TO VISIBILITY.

KSZ001>006-013>018-027>032-041>047-310200-
NORTHWEST KANSAS

CITY           SKY/WX    TMP DP  RH WIND       PRES   REMARKS
GOODLAND       CLEAR     82  39  21 S15       29.95S
HAYS           CLEAR     81  55  41 SE12      29.94S
HILL CITY      CLEAR     84  47  27 SE9       29.93S HAZE
RUSSELL        CLEAR     77  61  57 SE8       29.94S
$$

KSZ061>065-074>080-084>089-310200-
SOUTHWEST KANSAS

CITY           SKY/WX    TMP DP  RH WIND       PRES   REMARKS
DODGE CITY     CLEAR     79  53  40 S8        29.96F
ELKHART          N/A     78  55  44 SE9         N/A
GARDEN CITY    CLEAR     76  54  46 SE9       29.95F
GREAT BEND     CLEAR     79  61  53 SE8       29.94F
LIBERAL        CLEAR     84  43  23 E8        29.97F
PRATT          CLEAR     81  55  41 SE3       29.97S
$$

KSZ066>073-081>083-090>101-310200-
SOUTHEAST KANSAS

CITY           SKY/WX    TMP DP  RH WIND       PRES   REMARKS
CHANUTE        CLEAR     77  71  82 CALM      29.95S
COFFEYVILLE    CLEAR     81  73  76 CALM      29.93F
HUTCHINSON     CLEAR     74  64  71 E7        29.95F
MEDICINE LODGE   N/A     81  62  52 SE6       29.93F
NEWTON         CLEAR     79  61  53 S5        29.98S
PARSONS        PTCLDY    77  75  93 CALM      29.95S
WICHITA INTL   PTCLDY    78  64  61 SE6       29.94F
WICHITA JABRA  PTCLDY    77  66  68 SE5       29.94F
WICHITA MCCONL PTCLDY    79  62  55 E6        29.94F
WINFIELD       PTCLDY    79  69  71 SE8       29.95
$$

KSZ007>012-019>026-033>040-048>060-102>105-310200-
NORTHEAST KANSAS

CITY           SKY/WX    TMP DP  RH WIND       PRES   REMARKS
CONCORDIA      CLEAR     72  65  78 SE5       29.96S
EMPORIA        CLEAR     75  67  76 E5        29.95S
LAWRENCE       CLEAR     76  69  79 SE3       29.95S
MANHATTAN      CLEAR     75  68  78 NE5       29.94F
MARYSVILLE     CLEAR    N/A N/A N/A SE5       29.96S
OLATHE IND     CLEAR     77  70  79 SE5       29.96F
OLATHE EXE     CLEAR     78  69  73 SE3       29.96S
SALINA         CLEAR     79  65  62 E3        29.94S
TOPEKA BILLARD PTCLDY    77  71  82 CALM      29.94F
TOPEKA FORBES  CLEAR     77  70  79 CALM      29.95F
$$


USA.gov is the U.S. government's official web portal to all federal, state and local government web resources and services.